[[{"header":{"parameterUnit":"m.s-1","parameterCategory":1,"la1":30.2991,"la2":30.254,"lo1":-89.0895,"lo2":-89.0444,"dy":0.0017,"dx":0.0017,"nx":28,"ny":28,"refTime":"2024-04-21T03:00:00:Z","depth":0,"parameterNumber":2,"parameterNumberName":"U-component_of_WINDS"},"data":[0,0,0,0,0,0,0,0,0,0,0,0,0,0,0,0,0,0,0,0,0,0,0,0,0,0,0,0,0,0,0,0,0,0,0,0,0,0,0,0,0,0,0,0,0,0,0,0,0,0,0,0,0,0,0,0,0,0,-0.0131,-0.0132,0,-0.0276,-0.0278,-0.0279,-0.0302,-0.0301,-0.03,-0.0298,-0.0454,-0.0459,-0.0464,0,0,0,0,0,0,0,0,0,0,0,0,0,0.0121,0.0117,-0.0131,-0.0132,-0.0134,-0.0276,-0.0278,-0.028,-0.0303,-0.0301,-0.0299,-0.0298,-0.0452,-0.0458,-0.0465,0,0,0,0,0,0,0,0,0,0,0,0,0,-0.0003,0.0115,-0.013,-0.0162,-0.0167,-0.0275,-0.0278,-0.028,-0.0303,-0.0301,-0.0299,-0.0297,-0.045,-0.0458,-0.0465,-0.0554,0,0,-0.049,-0.0493,0,0,0,0,0,0,0,0,0.0004,-0.0012,-0.0156,-0.016,-0.0166,-0.0269,-0.0246,-0.0372,-0.0303,-0.0251,-0.0298,-0.0296,-0.0394,-0.0407,-0.0438,-0.0561,-0.0568,-0.0491,-0.0496,-0.0499,-0.0501,0,0,0,0,0,0,0,0.0013,-0.0006,-0.0188,-0.0158,-0.0164,-0.0172,-0.0187,-0.027,-0.0332,-0.0256,-0.0258,-0.0274,-0.0396,-0.0431,-0.0442,-0.057,-0.049,-0.0498,-0.0503,-0.0506,-0.0775,-0.0777,0,0,0,0,0,0,0.0028,0.0001,-0.0184,-0.0193,-0.0074,-0.0178,-0.0195,-0.0238,-0.0331,-0.0344,-0.0276,-0.0275,-0.0418,-0.0433,-0.0448,-0.0559,-0.0499,-0.0506,-0.0511,-0.0772,-0.0775,-0.0778,0,0,0,0,0,0,0.0034,0.0012,-0.0178,-0.0096,-0.0121,-0.0184,-0.0232,-0.0242,-0.0276,-0.0346,-0.0358,-0.0299,-0.0417,-0.0436,-0.0527,-0.0565,-0.051,-0.0517,-0.077,-0.0773,-0.0776,-0.0782,0,0,0,0,0,0,0.0041,0.0014,-0.0019,-0.0097,-0.0125,-0.0253,-0.0234,-0.0246,-0.0289,-0.0289,-0.0371,-0.0383,-0.0417,-0.0515,-0.0535,-0.0575,-0.0524,-0.0767,-0.0771,-0.0775,-0.0779,-0.0785,-0.079,0,0,0,0,0,0.005,-0.0016,-0.002,-0.0043,-0.0167,-0.0255,-0.0272,-0.0308,-0.0292,-0.0327,-0.0372,-0.038,-0.0557,-0.0524,-0.0547,-0.059,-0.0764,-0.077,-0.0775,-0.0776,-0.0784,-0.079,0,0,0,0,0,0,0.0057,-0.0027,-0.0033,-0.0125,-0.0183,-0.0259,-0.0304,-0.0315,-0.038,-0.0378,-0.0421,-0.0439,-0.0529,-0.0568,-0.053,-0.0681,-0.066,-0.067,-0.0652,-0.0661,-0.0666,-0.0656,-0.053,0,0,0,0,0,0.0048,-0.0014,-0.0085,-0.016,-0.0188,-0.0241,-0.0281,-0.0303,-0.0365,-0.039,-0.0442,-0.0504,-0.0574,-0.0619,-0.0686,-0.0783,-0.0803,-0.0824,-0.083,-0.0834,-0.0844,-0.09,-0.091,-0.0795,-0.0795,-0.0795,0,0,0.0028,-0.0025,-0.0062,-0.016,-0.0207,-0.0273,-0.0261,-0.0331,-0.0382,-0.0402,-0.0491,-0.0531,-0.0603,-0.0697,-0.0742,-0.0733,-0.0879,-0.0841,-0.0844,-0.0851,-0.0906,-0.0917,-0.0927,-0.0799,-0.0798,-0.0797,0,0,-0.0042,-0.0088,-0.0156,-0.0203,-0.0274,-0.0308,-0.0324,-0.0399,-0.0426,-0.0515,-0.0532,-0.0593,-0.0711,-0.0762,-0.0803,-0.0892,-0.0903,-0.0912,-0.0945,-0.0999,-0.1008,-0.1017,-0.1051,-0.1062,-0.0921,-0.0921,-0.0921,0,-0.0059,-0.0157,-0.019,-0.026,-0.0303,-0.0321,-0.0392,-0.0436,-0.0527,-0.0557,-0.0545,-0.0694,-0.0744,-0.0851,-0.0873,-0.0905,-0.0927,-0.0905,-0.1004,-0.1013,-0.1021,-0.1054,-0.1066,-0.0922,-0.0922,-0.0921,-0.0921,0,-0.0175,-0.0243,-0.029,-0.0374,-0.0423,-0.0492,-0.0538,-0.0583,-0.06,-0.0637,-0.0728,-0.0788,-0.0869,-0.0895,-0.0914,-0.1006,-0.0999,-0.0994,-0.0975,-0.1032,-0.1064,-0.1077,-0.0923,-0.0923,-0.0922,-0.0922,0,0,-0.0249,-0.0349,-0.0366,-0.0405,-0.0484,-0.0538,-0.0609,-0.0685,-0.0725,-0.0785,-0.0848,-0.0947,-0.0943,-0.099,-0.1015,-0.1062,-0.1131,-0.1052,-0.1055,-0.1067,-0.1239,-0.1243,-0.1257,-0.1137,-0.114,-0.1142,-0.1234,0,-0.0331,-0.0456,-0.0487,-0.0595,-0.066,-0.0677,-0.0739,-0.0795,-0.0831,-0.0892,-0.0932,-0.1002,-0.0991,-0.102,-0.1067,-0.1112,-0.1166,-0.1106,-0.1199,-0.1202,-0.1183,-0.1274,-0.1279,-0.1363,-0.1246,-0.1248,-0.125,0,-0.0444,-0.0505,-0.0619,-0.069,-0.0718,-0.0773,-0.0846,-0.0903,-0.0968,-0.0991,-0.1042,-0.1062,-0.1139,-0.1111,-0.1219,-0.1177,-0.1217,-0.1245,-0.1249,-0.1262,-0.1231,-0.1292,-0.1391,-0.1404,-0.1269,-0.1268,-0.1266,0,-0.0489,-0.06,-0.0683,-0.0715,-0.0799,-0.0838,-0.0875,-0.0937,-0.0981,-0.1046,-0.1076,-0.1148,-0.1189,-0.1246,-0.1285,-0.1262,-0.1391,-0.1367,-0.1414,-0.1414,-0.1444,-0.1442,-0.1553,-0.1464,-0.1463,-0.1463,-0.1463,0,-0.0579,-0.0649,-0.0704,-0.0756,-0.0835,-0.087,-0.0948,-0.0986,-0.1041,-0.1102,-0.1121,-0.1178,-0.1225,-0.1289,-0.132,-0.1406,-0.1423,-0.1446,-0.1454,-0.1446,-0.1444,-0.1475,-0.1472,-0.1467,-0.1466,-0.1465,-0.1465,0,-0.0644,-0.0684,-0.0776,-0.0847,-0.0866,-0.0922,-0.0984,-0.1035,-0.107,-0.1147,-0.1167,-0.1223,-0.1299,-0.1343,-0.1439,-0.146,-0.1556,-0.156,-0.1534,-0.1539,-0.1585,-0.1581,-0.1723,-0.1745,-0.1637,-0.1638,-0.1639,0,-0.0701,-0.0755,-0.0831,-0.0872,-0.0909,-0.0974,-0.1019,-0.1056,-0.1102,-0.1179,-0.1222,-0.1299,-0.1363,-0.1483,-0.1534,-0.1608,-0.1616,-0.1661,-0.1628,-0.1618,-0.1621,-0.1618,-0.1625,-0.1668,-0.1668,-0.1669,-0.167,0,-0.0798,-0.0814,-0.0877,-0.0947,-0.0999,-0.1056,-0.1113,-0.1146,-0.1193,-0.1244,-0.1321,-0.137,-0.1467,-0.1544,-0.1622,-0.1663,-0.1676,-0.1679,-0.1695,-0.1689,-0.1673,-0.1685,-0.1553,-0.1677,-0.1676,-0.1676,-0.1675,-0.1675,-0.0863,-0.0912,-0.0973,-0.1043,-0.1089,-0.1141,-0.1193,-0.1234,-0.1298,-0.1379,-0.1397,-0.1479,-0.1542,-0.1648,-0.169,-0.1756,-0.1749,-0.177,-0.1777,-0.1782,-0.1785,-0.1659,-0.177,-0.177,-0.177,-0.177,-0.177,0,-0.0963,-0.1003,-0.1066,-0.1144,-0.12,-0.1202,-0.1266,-0.1312,-0.1383,-0.1441,-0.1502,-0.1591,-0.1666,-0.1721,-0.1798,-0.184,-0.1848,-0.1859,-0.1858,-0.1868,-0.1786,-0.1766,-0.1851,-0.1851,-0.1851,-0.1851,-0.1851,-0.1851,-0.1022,-0.1106,-0.113,-0.1237,-0.1277,-0.1356,-0.1392,-0.1441,-0.1487,-0.1585,-0.1646,-0.1681,-0.1738,-0.1819,-0.1888,-0.1902,-0.1931,-0.1942,-0.1958,-0.1882,-0.1873,-0.1865,-0.1847,-0.1948,-0.1948,-0.2035,-0.2036,-0.2036]},{"header":{"parameterUnit":"m.s-1","parameterCategory":1,"la1":30.2991,"la2":30.254,"lo1":-89.0895,"lo2":-89.0444,"dy":0.0017,"dx":0.0017,"nx":28,"ny":28,"refTime":"2024-04-21T03:00:00:Z","depth":0,"parameterNumber":3,"parameterNumberName":"V-component_of_WINDS"},"data":[0,0,0,0,0,0,0,0,0,0,0,0,0,0,0,0,0,0,0,0,0,0,0,0,0,0,0,0,0,0,0,0,0,0,0,0,0,0,0,0,0,0,0,0,0,0,0,0,0,0,0,0,0,0,0,0,0,0,-6.5642,-6.5642,0,-6.5709,-6.571,-6.5711,-6.5577,-6.5572,-6.5568,-6.5564,-6.563,-6.5636,-6.5641,0,0,0,0,0,0,0,0,0,0,0,0,0,-6.5394,-6.5399,-6.5641,-6.5642,-6.5643,-6.5709,-6.571,-6.5711,-6.5577,-6.5572,-6.5567,-6.5562,-6.5628,-6.5635,-6.5642,0,0,0,0,0,0,0,0,0,0,0,0,0,-6.5486,-6.5401,-6.5641,-6.5585,-6.558,-6.5709,-6.571,-6.5711,-6.5579,-6.5572,-6.5565,-6.5559,-6.5626,-6.5634,-6.5643,-6.5829,0,0,-6.567,-6.5674,0,0,0,0,0,0,0,0,-6.5481,-6.5495,-6.5592,-6.5589,-6.5584,-6.5628,-6.5647,-6.5751,-6.558,-6.5579,-6.5564,-6.5556,-6.5634,-6.5642,-6.5669,-6.5832,-6.5835,-6.5671,-6.5676,-6.568,-6.5682,0,0,0,0,0,0,0,-6.5474,-6.5491,-6.5668,-6.5594,-6.5589,-6.5555,-6.5561,-6.5666,-6.5643,-6.5579,-6.5569,-6.5579,-6.5631,-6.5661,-6.567,-6.5836,-6.567,-6.5678,-6.5684,-6.5687,-6.6156,-6.6163,0,0,0,0,0,0,-6.5475,-6.5487,-6.5666,-6.567,-6.5515,-6.5565,-6.5571,-6.562,-6.5641,-6.5638,-6.5585,-6.5573,-6.5649,-6.566,-6.5672,-6.5892,-6.568,-6.5688,-6.5693,-6.6149,-6.6158,-6.6166,0,0,0,0,0,0,-6.5471,-6.5493,-6.5663,-6.5576,-6.5595,-6.5576,-6.5632,-6.5625,-6.5655,-6.5646,-6.5641,-6.562,-6.5644,-6.5659,-6.5791,-6.5892,-6.5692,-6.57,-6.6141,-6.6152,-6.6162,-6.6333,0,0,0,0,0,0,-6.5464,-6.5492,-6.5563,-6.5579,-6.56,-6.5783,-6.5639,-6.5631,-6.5671,-6.5656,-6.5678,-6.5675,-6.564,-6.5779,-6.58,-6.5901,-6.5707,-6.6132,-6.6146,-6.6158,-6.6319,-6.6349,-6.6374,0,0,0,0,0,-6.5456,-6.5608,-6.5567,-6.559,-6.5689,-6.5789,-6.5802,-6.576,-6.568,-6.5751,-6.5745,-6.5674,-6.5878,-6.5794,-6.5816,-6.5921,-6.6125,-6.6142,-6.6157,-6.6306,-6.6343,-6.6374,0,0,0,0,0,0,-6.5603,-6.5608,-6.5564,-6.5725,-6.5758,-6.5767,-6.5855,-6.58,-6.5855,-6.5838,-6.5783,-6.5789,-6.5933,-6.5939,-6.5846,-6.6103,-6.5988,-6.6009,-6.6093,-6.6128,-6.6155,-6.6151,-6.5714,0,0,0,0,0,-6.5654,-6.5736,-6.5736,-6.5879,-6.5898,-6.5874,-6.5916,-6.5881,-6.5913,-6.5925,-6.5929,-6.5961,-6.6032,-6.608,-6.6145,-6.6319,-6.6322,-6.6402,-6.643,-6.6453,-6.6472,-6.6566,-6.6601,-6.6219,-6.6219,-6.6218,0,0,-6.5761,-6.5774,-6.5829,-6.5909,-6.593,-6.6016,-6.5886,-6.5982,-6.6045,-6.5939,-6.6065,-6.6069,-6.6101,-6.6256,-6.6324,-6.6266,-6.6579,-6.6474,-6.6492,-6.6499,-6.6586,-6.6622,-6.6654,-6.623,-6.6228,-6.6226,0,0,-6.5999,-6.6017,-6.6139,-6.6163,-6.6198,-6.6181,-6.6211,-6.6228,-6.6227,-6.6353,-6.6276,-6.6349,-6.6473,-6.6499,-6.6529,-6.678,-6.6717,-6.6802,-6.6948,-6.704,-6.707,-6.7096,-6.7186,-6.7219,-6.6821,-6.6822,-6.6822,0,-6.6127,-6.6254,-6.6207,-6.631,-6.6347,-6.6257,-6.638,-6.6405,-6.6459,-6.6487,-6.6421,-6.6576,-6.6591,-6.6751,-6.6812,-6.6839,-6.687,-6.6799,-6.7069,-6.7095,-6.7119,-6.7205,-6.7239,-6.6832,-6.6831,-6.683,-6.6829,0,-6.641,-6.6499,-6.6593,-6.6649,-6.6697,-6.6809,-6.6779,-6.6833,-6.6795,-6.6785,-6.6914,-6.693,-6.6997,-6.7032,-6.6994,-6.7187,-6.715,-6.7079,-6.6962,-6.7167,-6.7246,-6.7278,-6.6846,-6.6843,-6.684,-6.6837,0,0,-6.6741,-6.6772,-6.6807,-6.6832,-6.6864,-6.6932,-6.704,-6.7107,-6.7155,-6.7195,-6.7284,-6.7392,-6.7326,-6.7359,-6.7324,-6.7405,-6.7603,-6.7322,-6.7322,-6.7375,-6.7818,-6.7872,-6.7911,-6.7562,-6.7568,-6.7573,-6.7815,0,-6.6978,-6.7165,-6.7128,-6.731,-6.7393,-6.7309,-6.7403,-6.7433,-6.7427,-6.7495,-6.7488,-6.7566,-6.7472,-6.7492,-6.7568,-6.7563,-6.7692,-6.7545,-6.7644,-6.7648,-6.7639,-6.7952,-6.801,-6.8238,-6.7846,-6.7851,-6.7855,0,-6.7279,-6.7333,-6.7525,-6.7546,-6.7579,-6.7664,-6.7723,-6.779,-6.7822,-6.7812,-6.7851,-6.7801,-6.7907,-6.779,-6.7936,-6.7837,-6.7875,-6.7879,-6.7887,-6.7895,-6.7764,-6.7969,-6.8309,-6.8344,-6.7903,-6.7899,-6.7896,0,-6.7504,-6.7624,-6.7754,-6.7778,-6.7805,-6.7867,-6.7881,-6.7907,-6.795,-6.8001,-6.8029,-6.8091,-6.8126,-6.8175,-6.8143,-6.806,-6.8295,-6.8175,-6.829,-6.8291,-6.8343,-6.834,-6.8695,-6.8367,-6.8367,-6.8366,-6.8366,0,-6.7772,-6.7893,-6.7856,-6.7936,-6.8069,-6.8024,-6.8157,-6.816,-6.8185,-6.8264,-6.8194,-6.827,-6.8223,-6.8295,-6.827,-6.8396,-6.8411,-6.8406,-6.8398,-6.8413,-6.8414,-6.8437,-6.8421,-6.8375,-6.8373,-6.8372,-6.837,0,-6.8045,-6.8025,-6.8162,-6.8177,-6.8183,-6.8281,-6.8293,-6.8368,-6.8357,-6.8459,-6.848,-6.8463,-6.8544,-6.8517,-6.8604,-6.8587,-6.8747,-6.8718,-6.8737,-6.873,-6.8847,-6.8837,-6.923,-6.928,-6.8919,-6.8923,-6.8926,0,-6.8218,-6.831,-6.8335,-6.8384,-6.8404,-6.8483,-6.8528,-6.8487,-6.8536,-6.8581,-6.865,-6.8726,-6.8784,-6.8917,-6.8912,-6.8978,-6.8951,-6.9084,-6.896,-6.8973,-6.8954,-6.8949,-6.8958,-6.9109,-6.9113,-6.9117,-6.9119,0,-6.8528,-6.8514,-6.8581,-6.8647,-6.8702,-6.875,-6.8792,-6.8836,-6.8798,-6.8857,-6.894,-6.8986,-6.9075,-6.9151,-6.9211,-6.9223,-6.9166,-6.9159,-6.9189,-6.9205,-6.9212,-6.9211,-6.8805,-6.915,-6.9147,-6.9144,-6.9143,-6.9141,-6.8757,-6.8835,-6.8866,-6.8943,-6.8971,-6.9013,-6.9084,-6.9084,-6.9153,-6.9223,-6.9195,-6.9291,-6.9321,-6.9396,-6.9418,-6.9491,-6.944,-6.9484,-6.9495,-6.9506,-6.9522,-6.9201,-6.9502,-6.9501,-6.95,-6.9499,-6.9499,0,-6.9064,-6.908,-6.9152,-6.9215,-6.9276,-6.9218,-6.9261,-6.9316,-6.9402,-6.9436,-6.9496,-6.9592,-6.9665,-6.9667,-6.9735,-6.9794,-6.977,-6.9814,-6.9809,-6.9813,-6.9564,-6.9531,-6.9833,-6.9832,-6.9832,-6.9832,-6.9832,-6.9832,-6.9231,-6.936,-6.935,-6.9493,-6.9507,-6.9602,-6.9632,-6.967,-6.9697,-6.9808,-6.987,-6.9871,-6.9892,-6.9961,-7.0026,-7.0025,-7.0053,-7.0108,-7.0097,-6.9864,-6.9831,-6.9799,-6.9768,-7.0114,-7.0115,-7.034,-7.0342,-7.0344]}]]